TimeCST,TemperatureF,Dew PointF,Humidity,Sea Level PressureIn,VisibilityMPH,Wind Direction,Wind SpeedMPH,Gust SpeedMPH,PrecipitationIn,Events,Conditions,WindDirDegrees,DateUTC
12:15 AM,13.5,5.9,72,30.70,10.0,NW,6.9,-,N/A,,Clear,320,2013-11-12 06:15:00
12:35 AM,13.6,6.3,72,30.70,10.0,NW,5.8,-,N/A,,Clear,310,2013-11-12 06:35:00
12:55 AM,12.9,5.9,74,30.70,10.0,NW,8.1,-,N/A,,Clear,320,2013-11-12 06:55:00
1:15 AM,13.3,5.9,72,30.69,10.0,NW,8.1,-,N/A,,Clear,310,2013-11-12 07:15:00
1:35 AM,13.3,6.3,74,30.69,10.0,WNW,6.9,-,N/A,,Clear,300,2013-11-12 07:35:00
1:55 AM,13.1,6.3,74,30.71,10.0,NW,6.9,-,N/A,,Clear,310,2013-11-12 07:55:00
2:15 AM,12.7,6.3,75,30.71,10.0,WNW,9.2,-,N/A,,Clear,290,2013-11-12 08:15:00
2:35 AM,12.9,5.9,74,30.71,10.0,WNW,8.1,-,N/A,,Clear,290,2013-11-12 08:35:00
2:55 AM,12.6,5.9,75,30.72,10.0,West,5.8,-,N/A,,Clear,270,2013-11-12 08:55:00
3:15 AM,12.2,5.9,76,30.73,10.0,West,4.6,-,N/A,,Clear,280,2013-11-12 09:15:00
3:35 AM,12.6,6.4,77,30.73,10.0,West,4.6,-,N/A,,Clear,270,2013-11-12 09:35:00
3:55 AM,12.2,6.6,78,30.72,10.0,West,4.6,-,N/A,,Clear,270,2013-11-12 09:55:00
4:15 AM,11.8,6.3,78,30.72,10.0,WSW,4.6,-,N/A,,Clear,250,2013-11-12 10:15:00
4:35 AM,10.4,6.4,84,30.72,10.0,SW,4.6,-,N/A,,Clear,230,2013-11-12 10:35:00
4:55 AM,11.3,6.3,80,30.72,10.0,WSW,3.5,-,N/A,,Clear,250,2013-11-12 10:55:00
5:15 AM,12.2,6.6,78,30.71,10.0,SW,5.8,-,N/A,,Clear,220,2013-11-12 11:15:00
5:35 AM,10.9,6.4,82,30.72,10.0,SSW,5.8,-,N/A,,Clear,210,2013-11-12 11:35:00
5:55 AM,11.1,6.8,83,30.71,10.0,SW,5.8,-,N/A,,Clear,230,2013-11-12 11:55:00
6:15 AM,12.0,6.8,80,30.70,10.0,SW,6.9,-,N/A,,Clear,230,2013-11-12 12:15:00
6:35 AM,12.2,7.0,80,30.70,10.0,SW,6.9,-,N/A,,Clear,230,2013-11-12 12:35:00
6:55 AM,12.2,7.5,82,30.69,10.0,SW,6.9,-,N/A,,Clear,230,2013-11-12 12:55:00
7:15 AM,12.2,7.7,82,30.70,10.0,SW,4.6,-,N/A,,Clear,230,2013-11-12 13:15:00
7:35 AM,12.7,7.7,80,30.70,10.0,WSW,6.9,-,N/A,,Clear,240,2013-11-12 13:35:00
7:55 AM,13.1,8.1,80,30.71,10.0,WSW,8.1,-,N/A,,Clear,240,2013-11-12 13:55:00
8:15 AM,14.0,8.8,80,30.71,10.0,WSW,6.9,-,N/A,,Clear,250,2013-11-12 14:15:00
8:35 AM,14.9,8.8,77,30.71,10.0,West,9.2,-,N/A,,Clear,260,2013-11-12 14:35:00
8:55 AM,16.9,9.5,73,30.70,10.0,West,6.9,-,N/A,,Clear,260,2013-11-12 14:55:00
9:15 AM,17.6,9.3,70,30.69,10.0,WSW,8.1,-,N/A,,Clear,250,2013-11-12 15:15:00
9:35 AM,19.4,9.3,65,30.69,10.0,WSW,8.1,-,N/A,,Clear,250,2013-11-12 15:35:00
9:55 AM,20.3,8.6,61,30.69,10.0,WSW,11.5,-,N/A,,Clear,250,2013-11-12 15:55:00
10:15 AM,21.2,8.4,58,30.68,10.0,West,10.4,16.1,N/A,,Clear,260,2013-11-12 16:15:00
10:35 AM,22.8,7.9,53,30.68,10.0,SW,11.5,-,N/A,,Clear,230,2013-11-12 16:35:00
10:55 AM,23.7,6.4,48,30.67,10.0,West,12.7,18.4,N/A,,Clear,260,2013-11-12 16:55:00
11:15 AM,24.6,5.7,45,30.66,10.0,WSW,10.4,-,N/A,,Clear,250,2013-11-12 17:15:00
11:35 AM,25.0,4.5,42,30.65,10.0,West,11.5,19.6,N/A,,Clear,260,2013-11-12 17:35:00
11:55 AM,26.1,4.6,40,30.64,10.0,West,11.5,17.3,N/A,,Clear,270,2013-11-12 17:55:00
12:15 PM,27.0,5.9,41,30.62,10.0,SW,12.7,-,N/A,,Clear,230,2013-11-12 18:15:00
12:35 PM,27.7,6.6,41,30.61,10.0,WSW,12.7,19.6,N/A,,Clear,250,2013-11-12 18:35:00
12:55 PM,28.4,5.9,39,30.60,10.0,West,12.7,19.6,N/A,,Clear,260,2013-11-12 18:55:00
1:15 PM,28.8,4.6,36,30.59,10.0,West,17.3,-,N/A,,Clear,260,2013-11-12 19:15:00
1:35 PM,29.8,4.5,34,30.58,10.0,West,15.0,19.6,N/A,,Clear,260,2013-11-12 19:35:00
1:55 PM,29.8,3.2,32,30.57,10.0,West,16.1,20.7,N/A,,Clear,260,2013-11-12 19:55:00
2:15 PM,30.2,2.5,31,30.56,10.0,SW,12.7,17.3,N/A,,Clear,230,2013-11-12 20:15:00
2:35 PM,30.9,3.7,32,30.55,10.0,WSW,11.5,-,N/A,,Clear,240,2013-11-12 20:35:00
2:55 PM,30.4,4.3,33,30.55,10.0,WSW,11.5,16.1,N/A,,Clear,240,2013-11-12 20:55:00
3:15 PM,30.6,3.7,32,30.54,10.0,West,12.7,19.6,N/A,,Clear,260,2013-11-12 21:15:00
3:35 PM,30.2,4.3,33,30.54,10.0,West,16.1,19.6,N/A,,Clear,270,2013-11-12 21:35:00
3:55 PM,29.7,4.5,34,30.54,10.0,West,11.5,-,N/A,,Clear,260,2013-11-12 21:55:00
4:15 PM,29.1,4.5,35,30.54,10.0,WSW,10.4,-,N/A,,Clear,250,2013-11-12 22:15:00
4:35 PM,28.4,4.8,37,30.53,10.0,WSW,9.2,-,N/A,,Clear,240,2013-11-12 22:35:00
4:55 PM,28.0,5.2,38,30.52,10.0,WSW,8.1,-,N/A,,Clear,250,2013-11-12 22:55:00
5:15 PM,27.5,5.5,39,30.52,10.0,WSW,10.4,-,N/A,,Clear,250,2013-11-12 23:15:00
5:35 PM,27.1,5.9,41,30.51,10.0,WSW,8.1,-,N/A,,Clear,240,2013-11-12 23:35:00
5:55 PM,26.6,6.4,42,30.50,10.0,WSW,8.1,-,N/A,,Clear,240,2013-11-12 23:55:00
6:15 PM,26.1,6.8,44,30.49,10.0,WSW,8.1,-,N/A,,Clear,240,2013-11-13 00:15:00
6:35 PM,25.0,6.8,46,30.48,10.0,SW,8.1,-,N/A,,Clear,220,2013-11-13 00:35:00
6:55 PM,24.4,6.3,46,30.47,10.0,SW,9.2,-,N/A,,Clear,220,2013-11-13 00:55:00
7:15 PM,23.9,6.4,47,30.46,10.0,SW,9.2,-,N/A,,Clear,220,2013-11-13 01:15:00
7:35 PM,24.1,6.4,47,30.46,10.0,SW,9.2,-,N/A,,Clear,230,2013-11-13 01:35:00
7:55 PM,24.1,6.8,48,30.45,10.0,SW,8.1,-,N/A,,Clear,230,2013-11-13 01:55:00
8:15 PM,24.4,6.8,47,30.44,10.0,SW,9.2,-,N/A,,Clear,230,2013-11-13 02:15:00
8:35 PM,23.9,7.0,49,30.44,10.0,SW,10.4,-,N/A,,Clear,230,2013-11-13 02:35:00
8:55 PM,23.9,7.3,49,30.43,10.0,SW,10.4,16.1,N/A,,Clear,230,2013-11-13 02:55:00
9:15 PM,23.9,7.7,50,30.42,10.0,SW,11.5,-,N/A,,Clear,230,2013-11-13 03:15:00
9:35 PM,23.7,7.9,51,30.41,10.0,WSW,10.4,-,N/A,,Clear,240,2013-11-13 03:35:00
9:55 PM,23.4,8.2,53,30.41,10.0,SW,10.4,-,N/A,,Clear,230,2013-11-13 03:55:00
10:15 PM,23.2,8.6,54,30.41,10.0,WSW,8.1,-,N/A,,Clear,240,2013-11-13 04:15:00
10:35 PM,22.8,8.6,55,30.40,10.0,WSW,9.2,-,N/A,,Clear,240,2013-11-13 04:35:00
10:55 PM,22.8,9.3,56,30.39,10.0,SW,6.9,-,N/A,,Clear,230,2013-11-13 04:55:00
11:15 PM,21.7,9.7,60,30.39,10.0,SW,5.8,-,N/A,,Clear,230,2013-11-13 05:15:00
11:35 PM,21.7,10.4,62,30.37,10.0,SW,9.2,-,N/A,,Clear,230,2013-11-13 05:35:00
11:55 PM,22.1,11.1,63,30.36,10.0,SW,10.4,-,N/A,,Clear,230,2013-11-13 05:55:00